This is the latest recevied weather packets stored in our database for station/object DG2MCM-11. If no packets are shown the sender has not sent any weather packets the latest 1 day(s).
| Time | Temp. | Humidity | Pressure | Rain* | Wind** | Luminosity | Snow |
|---|---|---|---|---|---|---|---|
| 1778021869 | 9.44° C | 82% | 1010.8 hPa | 0 mm | 0 m/s | - | - |
| 1778020666 | 10.56° C | 78% | 1010.8 hPa | 0 mm | 0 m/s | - | - |
| 1778020129 | 10.56° C | 77% | 1010.6 hPa | 0 mm | 0 m/s | - | - |
| 1778019522 | 11.11° C | 76% | 1010.6 hPa | 0 mm | 0 m/s | - | - |
| 1778018310 | 11.11° C | 74% | 1010.6 hPa | 0 mm | 0 m/s | - | - |
| 1778017708 | 11.11° C | 76% | 1010.7 hPa | 0 mm | 0 m/s | - | - |
| 1778016505 | 11.11° C | 78% | 1010.8 hPa | 0 mm | 0 m/s | - | - |
| 1778015904 | 10.56° C | 78% | 1010.9 hPa | 0 mm | 0 m/s | - | - |
| 1778015302 | 10.56° C | 79% | 1010.9 hPa | 0 mm | 0 m/s | - | - |
| 1778014700 | 10.56° C | 79% | 1010.9 hPa | 0 mm | 0 m/s | - | - |
| 1778012896 | 11.11° C | 78% | 1010.7 hPa | 0 mm | 0 m/s | - | - |
| 1778012294 | 11.11° C | 78% | 1010.7 hPa | 0 mm | 0 m/s | - | - |
| 1778011091 | 11.11° C | 79% | 1010.8 hPa | 0 mm | 0 m/s | - | - |
| 1778009888 | 11.67° C | 78% | 1010.7 hPa | 0 mm | 0 m/s | - | - |
| 1778009286 | 12.22° C | 76% | 1010.3 hPa | 0 mm | 0 m/s | - | - |
| 1778007482 | 14.44° C | 70% | 1009 hPa | 0 mm | 0 m/s | - | - |
| 1778006879 | 14.44° C | 73% | 1008.6 hPa | 0 mm | 0 m/s | - | - |
| 1778006277 | 15° C | 73% | 1008.1 hPa | 0 mm | 0 m/s | - | - |
| 1778005074 | 15.56° C | 67% | 1007.6 hPa | 0 mm | 0 m/s | - | - |
| 1778004472 | 16.11° C | 64% | 1007.2 hPa | 0 mm | 0 m/s | - | - |
| 1778003869 | 16.67° C | 61% | 1006.9 hPa | 0 mm | 0 m/s | - | - |
| 1778003267 | 17.22° C | 60% | 1006.7 hPa | 0 mm | 0 m/s | - | - |
| 1778002125 | 17.78° C | 56% | 1006.4 hPa | 0 mm | 0 m/s | - | - |
| 1778001522 | 17.78° C | 54% | 1006.2 hPa | 0 mm | 0 m/s | - | - |
| 1778000320 | 18.33° C | 52% | 1006 hPa | 0 mm | 0 m/s | - | - |
* Rain latest hour (hover to see other rain measurements)
** Current wind speed in m/s (hover to see current wind gust speed)